Flag for Syria Weather past 2 weeks in Aleppo, Syria

Now
61 °F

Clear.


Feels Like: 61 °F
Forecast: 39 / 61 °F
Wind: 6 mph from Southeast

Location: Iskenderun

Current Time: Jan 26, 2015 at 4:44:01 AM

Latest Report: Jan 26, 2015 at 2:00 AM


Visibility: 9 mi

Pressure: 30.08 "Hg

Humidity: 36%

Dew point: 34 °F

Location of AleppoLocation

Historic Weather in Aleppo — Graph

°F

Aleppo temperature yesterday

Maximum temperature yesterday: 70 °F (at 3:00 PM)
Minimum temperature yesterday: 59 °F (at 11:00 PM)
Average temperature yesterday: 66 °F

Past Weeks' High & Low Weather Summary

 TemperatureHumidityPressure
High70 °F (Jan 25, 3:00 PM)81% (Jan 16, 12:00 AM)30.42 "Hg (Jan 16, 12:00 AM)
Low40 °F (Jan 12, 7:00 AM)3% (Jan 21, 4:00 AM)29.98 "Hg (Jan 24, 3:00 PM)
Average53 °F53%30.20 "Hg
* Reported Jan 11 2:00 AM — Jan 26 2:00 AM, Aleppo, Weather by CustomWeather, © 2014

Note: Actual official high and low records may vary slightly from our data, if they occured in-between our weather recording intervals... More about our weather records

Advertising

Aleppo weather history for previous 24 hours

 ConditionsComfort  
Time TempWeatherWind HumidityBarometerVisibility
2:00 AM
Jan 26
61 °FClear.6 mph36%30.08 "Hg9 mi
11:00 PM
Jan 25
59 °FClear.2 mph42%30.07 "Hg9 mi
8:00 PM62 °FClear.2 mph41%30.07 "Hg9 mi
7:00 PM63 °FClear.1 mph42%30.06 "Hg9 mi
6:00 PM65 °FClear.5 mph31%30.06 "Hg9 mi
5:00 PM67 °FClear.5 mph30%30.03 "Hg9 mi
4:00 PM69 °FSunny.6 mph30%30.01 "Hg9 mi
3:00 PM70 °FSunny.7 mph25%30.01 "Hg9 mi
2:00 PM69 °FSunny.9 mph26%30.01 "Hg9 mi
1:00 PM69 °FSunny.7 mph25%30.02 "Hg9 mi
12:00 PM69 °FSunny.8 mph24%30.03 "Hg9 mi
11:00 AM68 °FSunny.10 mph23%30.03 "Hg9 mi
10:00 AM67 °FSunny.6 mph26%30.03 "Hg9 mi
9:00 AM65 °FSunny.9 mph29%30.02 "Hg9 mi
8:00 AM64 °FScattered clouds.7 mph28%30.02 "Hg9 mi
7:00 AMN/APassing clouds.N/AN/AN/A10 mi
5:00 AM63 °FClear.8 mph33%30.01 "Hg9 mi
Weather by CustomWeather, © 2014

See weather overviewHow to use our weather pages